[[{"header":{"parameterUnit":"m.s-1","parameterCategory":2,"la1":30.2992,"la2":30.254,"lo1":-89.0895,"lo2":-89.0443,"dy":0.0025,"dx":0.0025,"nx":19,"ny":19,"refTime":"2026-03-21T21:00:00:Z","depth":"0","parameterNumber":2,"parameterNumberName":"U-component_of_CURRENTS"},"data":[0,0,0,0.2336,0.2337,0.246,0.2461,0.28,0.2803,0,0,0,0,0,0,0,0,0,0,0,0.2315,0.2316,0.2336,0.2337,0.246,0.2461,0.28,0.2803,0,0,0,0,0,0,0,0,0,0,0,0.2315,0.2316,0.2316,0.2338,0.2459,0.2461,0.2799,0.267,0,0,0,0,0,0,0,0,0,0,0.2533,0.2463,0.2315,0.2316,0.2338,0.2459,0.2461,0.2662,0.2678,0.2785,0,0.2792,0,0.2785,0.2827,0.2828,0,0,0,0.2375,0.2449,0.2483,0.2316,0.2339,0.2459,0.2415,0.267,0.2688,0.2807,0.2797,0.2808,0.2791,0.2829,0.2831,0.3177,0.3178,0,0,0.2369,0.2348,0.2469,0.2493,0.236,0.2411,0.2418,0.268,0.2699,0.2798,0.2814,0.2797,0.2831,0.2834,0.3176,0.3177,0,0,0,0.2324,0.2343,0.2368,0.2481,0.2477,0.2414,0.2422,0.2688,0.2695,0.2818,0.2801,0.2833,0.2838,0.3174,0.3176,0.313,0,0,0,0.2322,0.2314,0.2364,0.2355,0.247,0.2554,0.2425,0.2678,0.2705,0.2799,0.2833,0.2841,0.3173,0.3175,0.3128,0.3069,0,0,0,0.2311,0.2313,0.2323,0.2353,0.2386,0.2549,0.2572,0.2683,0.2695,0.2828,0.2842,0.3172,0.3175,0.3127,0.3069,0.2965,0,0,0,0.2294,0.2317,0.2323,0.2393,0.2384,0.2535,0.257,0.2695,0.2808,0.2835,0.3173,0.3176,0.3126,0.3069,0.2966,0.2697,0.2668,0,0,0.2313,0.2319,0.2375,0.2382,0.2558,0.2521,0.2684,0.2822,0.2891,0.3104,0.3111,0.3129,0.3069,0.2965,0.2859,0.2822,0,0,0,0.2379,0.2411,0.2483,0.2574,0.2676,0.274,0.2835,0.2879,0.3028,0.2961,0.3199,0.3164,0.3097,0.2943,0.2917,0.2881,0.3189,0.3189,0.3188,0.2332,0.2444,0.257,0.2707,0.2794,0.2906,0.2954,0.3027,0.3113,0.3156,0.3179,0.314,0.2983,0.2958,0.293,0.3262,0.3262,0.3262,0.3262,0.2397,0.2468,0.2609,0.2755,0.2853,0.295,0.3062,0.3085,0.3135,0.3213,0.315,0.297,0.2925,0.2905,0.326,0.3261,0.3261,0.3261,0.3261,0.2349,0.24,0.2498,0.2688,0.2799,0.293,0.2945,0.3042,0.3071,0.3042,0.2826,0.2823,0.2747,0.2997,0.2996,0.2996,0.2995,0.2995,0.2994,0.2246,0.2358,0.2437,0.2619,0.2696,0.2779,0.2866,0.2844,0.2756,0.2731,0.2729,0.2733,0.3057,0.3,0.2984,0.2986,0.2987,0.2988,0.2989,0.2275,0.2236,0.2357,0.2434,0.259,0.251,0.2629,0.2423,0.2386,0.225,0.2303,0.2547,0.2507,0.2528,0.246,0.2304,0.2304,0.2304,0.2304,0.2232,0.2241,0.23,0.2353,0.2399,0.2388,0.2071,0.1971,0.1922,0.1893,0.2011,0.2041,0.207,0.2012,0.2044,0.1971,0.1695,0.1695,0.1694,0.2312,0.2283,0.2281,0.2262,0.2305,0.2146,0.1763,0.1523,0.1548,0.1682,0.2018,0.2044,0.2116,0.2164,0.2103,0.2151,0.2044,0,0]},{"header":{"parameterUnit":"m.s-1","parameterCategory":2,"la1":30.2992,"la2":30.254,"lo1":-89.0895,"lo2":-89.0443,"dy":0.0025,"dx":0.0025,"nx":19,"ny":19,"refTime":"2026-03-21T21:00:00:Z","depth":"0","parameterNumber":3,"parameterNumberName":"V-component_of_CURRENTS"},"data":[0,0,0,0.0233,0.0232,0.0195,0.0194,0.0242,0.0243,0,0,0,0,0,0,0,0,0,0,0,0.0249,0.0249,0.0233,0.0232,0.0195,0.0194,0.0242,0.0243,0,0,0,0,0,0,0,0,0,0,0,0.0249,0.0249,0.0249,0.0232,0.0195,0.0194,0.0242,0.0244,0,0,0,0,0,0,0,0,0,0,0.0268,0.0273,0.0249,0.0249,0.0232,0.0195,0.0194,0.0243,0.0244,0.0289,0,0.029,0,0.0273,0.0249,0.0249,0,0,0,0.0223,0.0272,0.0263,0.0249,0.0232,0.0195,0.0209,0.0243,0.0244,0.0291,0.029,0.0291,0.0274,0.025,0.025,0.0484,0.0486,0,0,0.0225,0.0242,0.0262,0.0264,0.0233,0.021,0.0208,0.0242,0.0251,0.029,0.0291,0.0275,0.025,0.0251,0.0482,0.0485,0,0,0,0.0237,0.0243,0.0231,0.0263,0.0252,0.0209,0.0207,0.0248,0.0245,0.0292,0.0275,0.0251,0.0252,0.048,0.0483,0.0561,0,0,0,0.0238,0.0251,0.0232,0.0241,0.0251,0.0237,0.0212,0.0242,0.0245,0.0275,0.0251,0.0253,0.0478,0.0482,0.0554,0.0607,0,0,0,0.0249,0.0252,0.025,0.0242,0.0229,0.0235,0.0232,0.0242,0.0237,0.0249,0.0253,0.0477,0.0481,0.0548,0.0597,0.0648,0,0,0,0.0262,0.0275,0.0251,0.0259,0.023,0.0237,0.0232,0.0225,0.0233,0.0251,0.0479,0.0483,0.0546,0.0591,0.0642,0.0588,0.061,0,0,0.0286,0.0278,0.0282,0.0259,0.0269,0.024,0.0331,0.0328,0.0334,0.0467,0.0471,0.0556,0.0597,0.0647,0.0845,0.0858,0,0,0,0.0294,0.03,0.0293,0.0296,0.029,0.0371,0.0357,0.0412,0.0523,0.0363,0.0626,0.0651,0.0678,0.0636,0.0649,0.0643,0.0504,0.0503,0.0503,0.0326,0.0325,0.0351,0.0368,0.0399,0.047,0.0556,0.0658,0.061,0.0702,0.0764,0.093,0.0891,0.0898,0.0896,0.0813,0.0813,0.0813,0.0813,0.0365,0.0387,0.0427,0.0456,0.0549,0.0642,0.0814,0.0834,0.0989,0.0934,0.0954,0.0785,0.0916,0.0909,0.082,0.0819,0.0818,0.0817,0.0817,0.0377,0.0402,0.0424,0.0522,0.0667,0.0782,0.0997,0.1078,0.1085,0.1137,0.1048,0.1045,0.099,0.1118,0.1119,0.112,0.112,0.112,0.1121,0.0387,0.0423,0.0497,0.0601,0.0709,0.0895,0.1099,0.1178,0.12,0.1167,0.1165,0.1077,0.1023,0.0954,0.1129,0.1127,0.1126,0.1125,0.1125,0.0436,0.0439,0.0565,0.0663,0.0905,0.1091,0.1226,0.1303,0.1335,0.1313,0.1195,0.1175,0.1141,0.1129,0.1066,0.1259,0.1259,0.1259,0.1259,0.0467,0.0474,0.0656,0.0839,0.1059,0.121,0.1353,0.1378,0.1314,0.127,0.1252,0.1167,0.1161,0.1123,0.1112,0.1047,0.1231,0.1231,0.1231,0.0533,0.0573,0.0725,0.0878,0.1136,0.1309,0.1394,0.14,0.1305,0.1232,0.1268,0.1269,0.1144,0.1135,0.1067,0.1051,0.0939,0,0]}],[{"header":{"parameterUnit":"m.s-1","parameterCategory":2,"la1":30.2992,"la2":30.254,"lo1":-89.0895,"lo2":-89.0443,"dy":0.0025,"dx":0.0025,"nx":19,"ny":19,"refTime":"2026-03-21T21:00:00:Z","depth":"2","parameterNumber":2,"parameterNumberName":"U-component_of_CURRENTS"},"data":[0,0,0,0.1931,0.1933,0.2065,0.2066,0.2379,0.2382,0,0,0,0,0,0,0,0,0,0,0,0.1872,0.1872,0.1931,0.1934,0.2065,0.2066,0.2379,0.2382,0,0,0,0,0,0,0,0,0,0,0,0.1872,0.1872,0.1872,0.1934,0.2065,0.2066,0.2378,0.2248,0,0,0,0,0,0,0,0,0,0,0.2105,0.2003,0.1872,0.1872,0.1935,0.2064,0.2066,0.2241,0.2256,0.2354,0,0.2346,0,0.2373,0.2404,0.2406,0,0,0,0.1956,0.1989,0.2041,0.1872,0.1935,0.2064,0.2012,0.2248,0.2266,0.2376,0.235,0.2362,0.2378,0.2407,0.2408,0.2812,0.2814,0,0,0.1949,0.1895,0.2028,0.2051,0.1937,0.2008,0.2016,0.2258,0.2257,0.2352,0.2369,0.2383,0.2409,0.2411,0.281,0.2812,0,0,0,0.1913,0.189,0.1933,0.2039,0.2052,0.2011,0.202,0.2246,0.2263,0.2372,0.2387,0.2411,0.2415,0.2808,0.2811,0.2753,0,0,0,0.191,0.1868,0.1929,0.1899,0.2045,0.2127,0.2002,0.2246,0.2274,0.2385,0.2411,0.2418,0.2806,0.281,0.2749,0.2731,0,0,0,0.1872,0.1865,0.1872,0.1895,0.1945,0.2123,0.2154,0.2252,0.2284,0.2406,0.2419,0.2804,0.2809,0.2747,0.2727,0.2608,0,0,0,0.1827,0.1857,0.1869,0.1911,0.1944,0.2069,0.2152,0.227,0.237,0.2412,0.2806,0.2811,0.2746,0.2726,0.2608,0.2334,0.231,0,0,0.1856,0.1858,0.189,0.1906,0.1957,0.2054,0.2228,0.2391,0.2487,0.2736,0.2744,0.275,0.2727,0.2608,0.2601,0.2566,0,0,0,0.1896,0.1919,0.1911,0.1968,0.2039,0.2195,0.2373,0.2449,0.2668,0.2564,0.2862,0.2852,0.2774,0.2615,0.2592,0.2833,0.2832,0.2831,0.2831,0.1882,0.1951,0.1996,0.2106,0.2193,0.2358,0.2459,0.2654,0.2728,0.2838,0.2884,0.2874,0.2715,0.2691,0.2977,0.2977,0.2977,0.2977,0.2977,0.1946,0.1992,0.2107,0.219,0.2343,0.2536,0.2724,0.2776,0.2872,0.2969,0.2893,0.2668,0.2659,0.2974,0.2975,0.2975,0.2975,0.2975,0.2976,0.1896,0.1945,0.2047,0.2242,0.2436,0.2634,0.2692,0.281,0.2858,0.2815,0.258,0.2578,0.2724,0.2749,0.2749,0.2748,0.2748,0.2747,0.2747,0.1819,0.1934,0.2037,0.2247,0.2388,0.253,0.2664,0.2633,0.2548,0.2521,0.2518,0.2796,0.2804,0.2715,0.2739,0.274,0.2741,0.2742,0.2743,0.1854,0.1845,0.196,0.2089,0.2347,0.2294,0.2424,0.2211,0.217,0.2038,0.2309,0.2322,0.2288,0.2307,0.2211,0.2102,0.2102,0.2102,0.2101,0.184,0.1846,0.1938,0.2067,0.2191,0.22,0.1854,0.1717,0.1742,0.1754,0.177,0.1783,0.1814,0.1758,0.1791,0.1686,0.144,0.1439,0.1439,0.1945,0.1868,0.1922,0.1957,0.2139,0.1951,0.1529,0.1238,0.1234,0.1424,0.1772,0.2034,0.2098,0.213,0.2086,0.2122,0.197,0,0]},{"header":{"parameterUnit":"m.s-1","parameterCategory":2,"la1":30.2992,"la2":30.254,"lo1":-89.0895,"lo2":-89.0443,"dy":0.0025,"dx":0.0025,"nx":19,"ny":19,"refTime":"2026-03-21T21:00:00:Z","depth":"2","parameterNumber":3,"parameterNumberName":"V-component_of_CURRENTS"},"data":[0,0,0,0.013,0.013,0.0092,0.0092,0.0086,0.0086,0,0,0,0,0,0,0,0,0,0,0,0.0141,0.0142,0.013,0.013,0.0092,0.0092,0.0086,0.0086,0,0,0,0,0,0,0,0,0,0,0,0.0141,0.0141,0.0142,0.013,0.0092,0.0092,0.0086,0.01,0,0,0,0,0,0,0,0,0,0,0.0129,0.0132,0.0141,0.0142,0.013,0.0092,0.0092,0.01,0.0099,0.0121,0,0.0125,0,0.0116,0.0088,0.0088,0,0,0,0.0112,0.0133,0.0135,0.0142,0.013,0.0092,0.0104,0.0099,0.0098,0.012,0.0125,0.0124,0.0116,0.0089,0.0089,0.0308,0.031,0,0,0.0114,0.0121,0.0135,0.0135,0.0134,0.0106,0.0103,0.0097,0.0097,0.0125,0.0124,0.0116,0.0089,0.0089,0.0306,0.0308,0,0,0,0.0132,0.0123,0.0123,0.0135,0.0131,0.0105,0.0102,0.0097,0.0101,0.0124,0.0116,0.0089,0.0089,0.0303,0.0307,0.038,0,0,0,0.0133,0.0135,0.0124,0.0125,0.0131,0.0106,0.0102,0.01,0.01,0.0116,0.0089,0.009,0.0301,0.0305,0.0372,0.0446,0,0,0,0.0141,0.0135,0.0137,0.0126,0.0119,0.0106,0.0107,0.0099,0.0096,0.0089,0.009,0.0299,0.0304,0.0366,0.0434,0.0475,0,0,0,0.0138,0.0156,0.0138,0.0137,0.012,0.0115,0.0107,0.0087,0.0079,0.0089,0.0301,0.0306,0.0364,0.0427,0.0469,0.0389,0.0411,0,0,0.0163,0.0159,0.0155,0.0138,0.0101,0.0118,0.0196,0.0177,0.0184,0.0297,0.0301,0.0375,0.0434,0.0474,0.0685,0.0697,0,0,0,0.0162,0.0161,0.0136,0.0119,0.0107,0.0213,0.0201,0.0263,0.0374,0.0209,0.0459,0.0497,0.0517,0.0459,0.0472,0.0331,0.033,0.033,0.0329,0.0187,0.0169,0.0165,0.0169,0.02,0.0287,0.0391,0.0517,0.0451,0.056,0.0616,0.079,0.0734,0.0741,0.0664,0.0665,0.0665,0.0665,0.0666,0.0204,0.0216,0.0236,0.024,0.0352,0.0465,0.067,0.0699,0.086,0.0806,0.0818,0.0618,0.0758,0.0673,0.0672,0.0671,0.067,0.0669,0.0669,0.0209,0.0232,0.0244,0.0323,0.0493,0.0638,0.0875,0.0968,0.0973,0.102,0.0901,0.0898,0.0785,0.0986,0.0987,0.0988,0.0988,0.0988,0.0989,0.0229,0.0251,0.0327,0.0424,0.0551,0.0766,0.0997,0.1072,0.1079,0.1035,0.1032,0.0898,0.0888,0.0808,0.0997,0.0996,0.0995,0.0994,0.0993,0.0269,0.0291,0.0405,0.0515,0.0781,0.0976,0.1121,0.1176,0.1203,0.1166,0.1027,0.1023,0.0989,0.0978,0.0903,0.1106,0.1107,0.1106,0.1106,0.0314,0.0322,0.0515,0.0719,0.0958,0.1111,0.1212,0.1169,0.1102,0.1015,0.1019,0.0914,0.0911,0.0866,0.0857,0.0777,0.0948,0.0948,0.0948,0.0373,0.0415,0.0585,0.0763,0.1054,0.1206,0.122,0.1088,0.0926,0.0942,0.0997,0.1095,0.0945,0.0939,0.0868,0.0855,0.0724,0,0]}],[{"header":{"parameterUnit":"m.s-1","parameterCategory":2,"la1":30.2992,"la2":30.254,"lo1":-89.0895,"lo2":-89.0443,"dy":0.0025,"dx":0.0025,"nx":19,"ny":19,"refTime":"2026-03-21T21:00:00:Z","depth":"4","parameterNumber":2,"parameterNumberName":"U-component_of_CURRENTS"},"data":[0,0,0,0.0509,0.051,0.0502,0.0502,0.0364,0.0363,0,0,0,0,0,0,0,0,0,0,0,0.052,0.0521,0.0509,0.051,0.0503,0.0502,0.0365,0.0363,0,0,0,0,0,0,0,0,0,0,0,0.052,0.0521,0.0522,0.051,0.0503,0.0502,0.0365,0.0394,0,0,0,0,0,0,0,0,0,0,0.0413,0.0437,0.0521,0.0522,0.051,0.0503,0.0502,0.0396,0.0392,0.0342,0,0.0379,0,0.0377,0.0354,0.0354,0,0,0,0.0475,0.0441,0.0463,0.0523,0.0511,0.0503,0.0496,0.0395,0.039,0.0336,0.0377,0.0373,0.0375,0.0353,0.0353,0.0399,0.04,0,0,0.0475,0.0481,0.0468,0.0462,0.0555,0.0496,0.0496,0.0393,0.039,0.0377,0.037,0.0373,0.0352,0.0351,0.0398,0.0399,0,0,0,0.05,0.0481,0.0507,0.0467,0.0481,0.0497,0.0497,0.0393,0.0412,0.0368,0.0371,0.0352,0.035,0.0396,0.0398,0.0469,0,0,0,0.0499,0.0499,0.0508,0.0505,0.0486,0.045,0.05,0.0418,0.0407,0.0372,0.0352,0.0349,0.0394,0.0397,0.0463,0.0494,0,0,0,0.0512,0.0498,0.0519,0.0507,0.0522,0.0453,0.0462,0.0416,0.0409,0.0354,0.0348,0.0393,0.0397,0.0458,0.0486,0.0564,0,0,0,0.0486,0.0459,0.0519,0.0438,0.0523,0.0443,0.0463,0.0395,0.0344,0.0351,0.0395,0.0398,0.0456,0.0482,0.0559,0.0398,0,0,0,0.0415,0.0451,0.0382,0.0435,0.0336,0.0439,0.0394,0.0361,0.0398,0.0408,0.041,0.0465,0.0486,0.0563,0.0611,0,0,0,0,0.0327,0.0298,0.0268,0.023,0.0225,0.0329,0.0319,0.0392,0.0498,0.0398,0.0518,0.0531,0.0576,0.047,0.0416,0.0415,0.0415,0.0414,0.0414,0.0307,0.0231,0.0141,0.0109,0.0117,0.0232,0.0343,0.048,0.0463,0.0595,0.0627,0.0789,0.0684,0.0672,0.0672,0.0673,0.0673,0.0673,0.0673,0.017,0.0114,0.009,-0.0008,0.0136,0.0183,0.0424,0.0533,0.0763,0.075,0.0791,0.0601,0.0682,0.068,0.0679,0.0678,0.0677,0.0677,0.0676,0.0196,0.0154,0.0096,0.0007,0.0127,0.0271,0.0505,0.0699,0.084,0.0936,0.0841,0.0857,0.0805,0.0968,0.0968,0.0969,0.0969,0.097,0.097,0.0252,0.0173,0.0109,0.0049,0.0104,0.0291,0.0597,0.0745,0.0896,0.0927,0.0974,0.0888,0.0878,0.0825,0.0978,0.0977,0.0976,0.0975,0.0974,0.0057,0.0195,0.0103,0.0101,0.0144,0.0276,0.054,0.0781,0.0914,0.0956,0.0921,0.0921,0.0883,0.0874,0.0817,0.0974,0.0972,0.0971,0,0.005,0.0053,0.0096,0.0102,0.0148,0.0286,0.0462,0.0641,0.0799,0.0774,0.0877,0.0828,0.083,0.0772,0.0762,0.0689,0,0,0,-0.0167,-0.0,0.001,0.0123,0.0153,0.0338,0.0529,0.0598,0.0756,0.0842,0.0933,0.0943,0.0885,0.1002,0.0944,0.0933,0.0844,0,0]},{"header":{"parameterUnit":"m.s-1","parameterCategory":2,"la1":30.2992,"la2":30.254,"lo1":-89.0895,"lo2":-89.0443,"dy":0.0025,"dx":0.0025,"nx":19,"ny":19,"refTime":"2026-03-21T21:00:00:Z","depth":"4","parameterNumber":3,"parameterNumberName":"V-component_of_CURRENTS"},"data":[0,0,0,0.0139,0.014,0.0197,0.0197,0.0281,0.0282,0,0,0,0,0,0,0,0,0,0,0,0.0137,0.0138,0.0139,0.014,0.0196,0.0197,0.0281,0.0282,0,0,0,0,0,0,0,0,0,0,0,0.0137,0.0137,0.0138,0.014,0.0196,0.0197,0.0281,0.0238,0,0,0,0,0,0,0,0,0,0,0.0183,0.0156,0.0137,0.0138,0.014,0.0196,0.0197,0.0236,0.0241,0.0255,0,0.027,0,0.0265,0.0287,0.0287,0,0,0,0.0153,0.0152,0.0181,0.0138,0.0141,0.0196,0.0175,0.0239,0.0244,0.0261,0.0271,0.0274,0.0267,0.0287,0.0288,0.033,0.033,0,0,0.015,0.0134,0.0178,0.0185,0.0164,0.0173,0.0176,0.0242,0.0243,0.0272,0.0275,0.0268,0.0288,0.0288,0.033,0.033,0,0,0,0.0132,0.0131,0.0158,0.0182,0.0184,0.0174,0.0178,0.0241,0.0254,0.0276,0.0269,0.0288,0.0289,0.033,0.033,0.0353,0,0,0,0.0131,0.012,0.0157,0.0146,0.0183,0.0205,0.0175,0.025,0.0257,0.0269,0.0288,0.029,0.033,0.033,0.0353,0.0399,0,0,0,0.0133,0.0119,0.0132,0.0146,0.0164,0.0204,0.0221,0.0252,0.0252,0.0287,0.029,0.033,0.033,0.0352,0.0397,0.0392,0,0,0,0.0106,0.0136,0.0132,0.0176,0.0163,0.0226,0.0221,0.0258,0.029,0.0288,0.033,0.033,0.0352,0.0395,0.0391,0.0373,0,0,0,0.0132,0.0138,0.0171,0.0169,0.0236,0.0219,0.0259,0.0287,0.0289,0.0312,0.0313,0.0353,0.0397,0.0392,0.0363,0,0,0,0,0.0173,0.0196,0.0218,0.0256,0.029,0.0299,0.0312,0.0295,0.0309,0.0303,0.0343,0.0371,0.0366,0.0352,0.0329,0.0329,0.0329,0.0329,0.0329,0.0177,0.022,0.0275,0.0326,0.0357,0.0351,0.0353,0.0329,0.0334,0.0324,0.0381,0.0387,0.0371,0.0351,0.0351,0.0351,0.0351,0.0351,0.0351,0.0224,0.0262,0.0311,0.0384,0.0399,0.0432,0.0405,0.0383,0.0387,0.0376,0.0369,0.0367,0.0354,0.0353,0.0353,0.0353,0.0352,0.0352,0.0352,0.0212,0.0239,0.0303,0.0408,0.0463,0.0486,0.0497,0.048,0.0439,0.0445,0.0419,0.0408,0.0415,0.0439,0.0439,0.0439,0.044,0.044,0.044,0.0177,0.0242,0.0319,0.0427,0.051,0.0565,0.0571,0.0549,0.0507,0.047,0.047,0.0417,0.0414,0.042,0.0442,0.0442,0.0442,0.0441,0.0441,0.0193,0.0202,0.0326,0.0416,0.0571,0.0594,0.0621,0.0562,0.0527,0.0481,0.0457,0.0455,0.0449,0.0446,0.0453,0.0486,0.0486,0.0485,0,0.018,0.0193,0.0345,0.0471,0.0557,0.0601,0.0564,0.0528,0.0478,0.0481,0.0485,0.0458,0.0457,0.0449,0.0446,0.0453,0,0,0,0.0208,0.0243,0.0338,0.0445,0.0556,0.0533,0.0539,0.0516,0.052,0.0469,0.0482,0.0483,0.0436,0.045,0.0438,0.0435,0.0444,0,0]}]]